Flag for U.S.A. Weather past 2 weeks in Anchorage, Alaska, U.S.A.

Now
10 °F

Overcast.


Feels Like: 2 °F
Forecast: 2 / 11 °F
Wind: 5 mph from Northeast

Location: Lake Hood Seaplane

Current Time: Jan 27, 2015 at 12:01:30 PM

Latest Report: Jan 27, 2015 at 10:53 AM


Visibility: 10 mi

Pressure: 30.04 "Hg

Humidity: 64%

Dew point: 0 °F

Location of AnchorageLocation

Historic Weather in Anchorage — Graph

°F

Anchorage temperature yesterday

Maximum temperature yesterday: 7 °F (at 10:53 PM)
Minimum temperature yesterday: -3 °F (at 6:53 AM)
Average temperature yesterday: 1 °F

Past Weeks' High & Low Weather Summary

 TemperatureHumidityPressure
High42 °F (Jan 15, 3:53 PM)89% (Jan 14, 5:53 AM)30.08 "Hg (Jan 14, 5:53 AM)
Low-3 °F (Jan 26, 6:53 AM)40% (Jan 24, 8:53 PM)28.79 "Hg (Jan 15, 3:53 PM)
Average22 °F75%29.47 "Hg
* Reported Jan 12 10:53 AM — Jan 27 10:53 AM, Anchorage, Weather by CustomWeather, © 2014

Note: Actual official high and low records may vary slightly from our data, if they occured in-between our weather recording intervals... More about our weather records

Advertising

Anchorage weather history for previous 24 hours

 ConditionsComfort  
Time TempWeatherWind HumidityBarometerVisibility
10:53 AM
Jan 27
10 °FOvercast.5 mph64%30.04 "Hg10 mi
9:53 AM10 °FOvercast.9 mph64%30.03 "Hg10 mi
8:53 AM10 °FOvercast.8 mph61%30.01 "Hg10 mi
7:53 AM10 °FOvercast.8 mph58%30.01 "Hg10 mi
6:53 AM9 °FMostly cloudy.10 mph64%29.99 "Hg10 mi
5:53 AM9 °FOvercast.10 mph64%30.00 "Hg10 mi
4:53 AM8 °FOvercast.8 mph66%30.01 "Hg10 mi
3:53 AM8 °FOvercast.10 mph60%30.01 "Hg10 mi
2:53 AM7 °FLight snow. Overcast.8 mph66%30.03 "Hg5 mi
1:53 AM8 °FOvercast.7 mph54%30.02 "Hg10 mi
12:53 AM7 °FOvercast.8 mph60%30.02 "Hg10 mi
11:53 PM
Jan 26
7 °FOvercast.7 mph57%30.03 "Hg10 mi
10:53 PM7 °FOvercast.8 mph60%30.02 "Hg10 mi
9:53 PM5 °FOvercast.3 mph69%30.03 "Hg10 mi
8:53 PM4 °FOvercast.5 mph69%30.03 "Hg10 mi
7:53 PM4 °FOvercast.5 mph69%30.02 "Hg10 mi
6:53 PM4 °FOvercast.9 mph63%30.03 "Hg10 mi
5:53 PM2 °FPassing clouds.3 mph72%30.03 "Hg10 mi
4:53 PM2 °FClear.3 mph69%30.03 "Hg10 mi
3:53 PM3 °FSunny.9 mph66%30.04 "Hg10 mi
2:53 PM2 °FSunny.6 mph69%30.05 "Hg10 mi
1:53 PM1 °FSunny.7 mph68%30.07 "Hg10 mi
12:53 PM1 °FSunny.6 mph65%30.08 "Hg10 mi
Weather by CustomWeather, © 2014

See weather overviewHow to use our weather pages